Starlink 30595

operational
NORAD ID: 58111 Int'l Des: 2023-161 Owner: SPXS Country: US Constellation: starlink
LEOCIRCULAR

关于 Starlink 30595

正在加载描述...

实时位置

正在加载3D地球...

即将过境

高度历史

Altitude vs Time

uPlot chart will show altitude changes over time

两行轨道根数

1 58111U 23161Q 25301.58395401 -.00000683 00000-0 -10938-4 0 9999
2 58111 53.1604 59.2923 0001166 90.7047 269.4087 15.30188638114193
Epoch: Oct 28, 2025 • Age: 25 hours

当前状态

高度 475.9 km
速度 7.63 km/s
星下点 25.50°N, 168.47°E
发射日期 Oct 21, 2023
运行时间 2 years
类型 internet

技术详情

分类 Payload
质量 730.00 kg
干质量 700.00 kg
总质量 730.00 kg
长度 0.30 m
直径 4.10 m
跨度 29.00 m
形状 Box + pan
制造商 SPXS
平台类型 Starlink V2M
阶段状态 In Orbit
所有者/国家 SPXS/US

大型星座

Loading constellations...